RH
13 11 12 12 12 12 12 13 14 15 17 21 25 26 26 24 23 23 24 25 24 24 25 24 22 19 20 17 15 16 15 15 18 22 19 10 4 6 12 9 6 11 13 13 18 27 33 34 34 40 44 40 34 26 33 39 27 21 19 17 18 19 19 19 22 23 25 29 31 32 28 32 39 40 41 41 48 56 61 66 65 64 62 63 69 72 73 73
11 10 10 11 10 11 11 11 12 13 15 18 22 26 27 26 24 24 24 25 26 26 27 25 21 22 23 20 19 19 18 19 24 26 14 6 8 6 6 11 12 12 12 12 15 20 18 16 20 30 35 29 22 19 24 27 21 19 16 15 16 15 15 16 20 24 26 28 30 31 31 32 36 39 38 40 50 55 63 70 69 73 73 70 72 73 71 72
9 9 9 9 10 9 9 10 11 11 13 15 18 23 27 28 27 25 25 25 28 29 28 24 21 24 21 22 25 23 26 28 22 17 9 4 6 5 5 9 14 13 12 10 9 11 10 12 18 24 25 18 15 15 14 17 20 17 13 13 12 12 16 19 22 26 26 27 31 33 33 34 36 37 36 39 46 50 61 68 69 77 79 74 70 69 69 72
8 9 8 8 8 8 9 8 9 10 11 13 15 20 25 29 29 27 26 26 30 31 28 23 22 22 20 23 25 25 33 26 7 4 10 11 7 4 4 8 14 14 12 9 8 12 15 20 22 20 17 12 14 13 8 14 19 14 10 11 11 14 21 24 26 29 29 28 31 33 32 35 36 36 36 38 38 43 55 61 65 72 77 75 68 66 70 72
8 8 7 7 7 7 8 7 8 8 9 11 14 19 25 29 30 30 28 28 31 30 26 23 20 20 21 22 22 29 29 11 2 7 16 18 13 7 3 7 14 14 12 9 12 19 21 22 20 17 15 9 10 9 6 9 11 9 9 9 11 16 23 27 28 30 30 29 30 30 32 35 37 37 38 38 38 40 46 54 61 66 69 70 67 66 70 72
8 8 7 7 7 6 6 6 7 7 8 10 14 23 29 31 31 31 29 29 30 28 24 21 18 19 22 22 25 31 19 4 5 12 17 18 16 13 4 5 13 14 11 8 14 21 20 19 17 16 14 10 9 7 7 7 7 8 8 10 16 20 26 29 29 30 29 28 30 32 34 36 36 42 44 45 48 47 48 56 62 64 66 67 67 68 69 70
10 9 8 7 7 6 5 5 5 6 8 8 17 27 32 34 33 31 29 29 28 24 21 18 15 17 23 27 26 22 12 7 7 9 14 12 13 15 6 6 11 13 10 10 17 20 17 15 16 18 14 10 10 8 8 7 7 9 11 17 25 26 29 30 30 32 30 32 34 33 36 37 37 43 49 53 56 55 57 61 63 64 67 67 67 67 67 70
10 8 9 8 7 7 4 5 4 5 7 8 20 30 35 37 35 32 29 29 24 21 20 16 16 17 26 35 26 13 9 8 5 6 10 9 13 15 8 8 10 10 9 9 16 19 16 15 16 17 12 10 11 8 8 8 8 11 14 23 29 31 33 32 33 36 35 37 35 34 40 43 42 44 51 58 58 57 60 62 63 64 65 65 67 67 69 72
10 8 9 7 7 6 4 5 3 5 6 9 22 31 36 41 40 33 28 28 23 20 18 16 19 20 31 41 23 8 8 10 9 8 10 11 14 14 8 8 9 8 8 12 17 18 16 15 17 14 11 12 11 8 9 8 8 13 19 26 30 33 35 35 37 38 38 38 35 39 45 45 44 43 52 59 57 56 59 62 64 64 65 64 65 68 71 72
8 8 8 7 6 5 4 4 3 5 5 10 25 31 35 41 41 32 27 26 20 19 18 20 23 25 42 42 14 5 10 16 18 13 13 12 13 14 9 6 7 6 10 19 19 15 13 14 16 13 10 12 10 9 9 7 10 20 27 30 32 34 35 36 39 38 38 40 38 42 47 46 43 42 52 59 55 55 58 62 64 65 67 66 65 67 72 72
8 7 7 6 6 5 4 4 3 4 4 12 26 31 32 35 34 28 25 21 17 19 18 23 28 35 54 40 9 8 14 19 21 18 17 11 10 12 7 6 6 4 11 21 20 15 14 15 17 13 9 8 8 9 9 9 17 25 28 32 34 34 36 37 38 38 38 42 41 40 43 46 45 45 54 58 54 54 58 63 63 64 67 67 67 68 72 72
7 6 6 5 5 4 4 3 4 4 4 14 28 31 29 29 29 24 22 19 19 19 18 30 40 51 61 35 10 12 15 19 20 19 20 14 12 11 6 6 6 6 10 16 19 17 15 16 14 11 8 7 9 9 8 12 21 25 26 33 36 34 38 37 35 37 37 38 40 36 33 42 53 53 54 54 52 53 57 61 63 64 67 69 70 68 70 72
7 6 6 5 5 4 4 3 4 3 4 17 30 32 27 26 25 19 19 19 19 19 24 37 46 59 56 23 10 15 15 21 19 18 21 17 17 15 11 11 10 10 11 12 16 17 15 14 12 10 9 8 8 8 10 14 19 25 26 31 35 35 39 37 32 36 37 35 40 36 28 43 59 55 51 51 52 54 57 59 60 63 66 69 71 68 68 70
7 7 5 5 5 4 4 3 4 3 5 21 34 32 26 23 20 18 19 20 20 22 28 37 47 61 50 18 14 18 17 21 17 16 18 15 17 20 17 15 13 11 12 15 15 16 16 14 12 10 9 9 9 9 13 15 17 25 28 29 33 35 37 35 31 35 37 36 40 34 25 43 60 55 51 50 50 53 56 56 56 60 64 67 71 70 68 69
7 7 6 5 5 4 4 3 4 3 7 25 37 31 24 20 17 19 20 21 22 22 34 48 56 59 40 19 19 18 18 21 17 15 14 13 15 19 20 16 14 13 14 17 16 16 16 13 10 8 9 11 9 10 14 17 18 23 27 32 34 33 35 34 30 33 36 36 37 31 27 45 59 55 51 48 49 52 53 54 54 57 60 64 68 69 68 68
7 7 5 5 4 4 3 3 5 2 9 30 38 30 24 21 20 22 24 26 24 28 49 65 64 54 30 16 18 17 21 20 16 15 13 13 13 14 18 16 15 16 16 17 16 17 14 12 12 10 9 10 9 11 16 21 23 20 21 32 35 31 36 36 28 28 35 35 35 33 33 48 57 55 52 48 48 50 52 54 54 56 58 60 64 64 65 67
8 6 6 6 3 4 3 3 5 2 13 35 39 32 28 25 26 27 28 28 29 38 55 64 63 50 24 13 16 16 18 17 15 16 14 15 14 13 16 16 15 15 15 15 14 14 11 10 13 11 10 11 11 11 15 22 26 22 18 26 30 29 34 36 28 28 34 35 36 38 40 50 57 56 54 51 49 51 52 54 54 55 57 59 61 60 61 64
8 6 5 5 3 4 3 3 4 3 17 37 39 37 36 36 35 36 39 38 40 49 53 57 55 35 15 11 13 13 14 16 16 16 16 17 16 14 14 14 14 12 11 11 11 11 9 10 12 11 10 12 12 10 12 16 21 21 17 21 25 26 31 33 29 30 34 35 38 41 46 57 62 58 57 55 52 52 53 54 54 55 57 60 61 59 60 61
8 7 5 4 4 3 2 4 2 5 22 35 39 43 47 49 45 44 54 54 43 37 33 40 39 20 13 15 14 15 15 14 15 15 17 18 17 15 12 11 12 10 10 9 9 10 9 10 12 11 11 11 10 9 10 10 13 15 13 16 19 23 28 29 28 30 33 37 39 40 48 61 65 62 60 58 57 56 58 60 60 59 60 61 62 61 62 61
9 7 6 4 5 3 3 4 1 9 25 31 39 47 45 43 38 33 46 51 38 27 20 23 27 20 17 18 16 16 13 12 14 13 16 17 15 13 11 11 11 10 11 10 9 10 11 11 11 11 10 10 10 10 11 10 10 11 11 12 13 16 21 26 32 34 31 35 44 48 53 62 65 64 63 61 62 62 63 65 64 64 63 63 64 64 66 66
9 8 7 4 5 3 3 3 2 13 23 26 36 37 29 30 29 25 30 33 31 31 27 23 25 22 18 19 18 14 12 12 12 11 15 16 13 12 12 12 11 11 13 12 10 11 12 11 11 10 9 11 12 12 12 11 10 10 10 10 12 15 20 28 33 35 32 34 48 57 60 67 68 67 67 64 62 61 62 65 65 66 66 67 69 68 71 72
10 9 7 5 5 2 4 2 3 17 19 21 30 26 23 30 31 28 27 25 26 30 30 28 27 25 21 22 21 16 13 12 11 11 14 14 12 12 12 12 11 11 13 12 11 12 12 11 10 10 11 12 14 13 12 12 11 11 11 10 11 17 26 32 33 35 34 35 50 60 60 68 70 69 69 66 63 63 64 66 67 69 70 71 71 72 75 77
11 9 7 7 4 2 4 -0 7 20 14 16 29 27 27 32 31 29 27 27 27 26 28 28 25 23 23 20 20 19 13 11 12 11 12 13 12 12 11 12 12 12 11 10 11 13 12 10 9 11 12 12 13 14 12 12 12 11 12 10 12 21 25 27 33 42 40 38 51 58 58 65 69 70 71 66 63 64 66 66 66 69 72 72 70 72 76 76
11 9 8 7 3 4 3 2 15 19 9 16 29 29 27 29 32 30 27 29 29 27 25 24 22 22 20 15 16 17 12 11 12 11 12 12 11 12 11 12 12 11 11 11 11 11 10 9 11 12 12 11 12 14 12 11 12 13 14 10 14 24 24 26 37 44 43 45 50 51 55 61 64 70 70 65 63 63 65 67 68 70 70 72 73 74 75 74
11 10 9 7 6 4 -0 9 20 12 9 22 28 29 23 21 30 30 27 28 25 23 21 19 21 20 15 13 15 13 10 10 10 10 12 11 10 11 11 11 11 10 11 12 11 10 10 10 12 11 12 12 10 12 11 10 11 14 15 13 17 25 27 34 40 36 38 48 49 44 47 52 57 66 65 64 67 65 67 69 68 71 71 73 76 75 74 75
10 10 9 9 7 3 4 16 17 6 12 24 28 28 19 18 30 29 28 27 18 16 15 14 17 14 11 13 14 11 10 10 8 10 12 10 9 10 10 11 11 12 13 13 11 11 11 11 12 11 11 11 10 11 12 12 12 14 16 17 22 26 31 38 35 30 34 43 46 41 39 43 51 58 58 61 69 67 69 70 67 69 72 72 74 73 73 73
11 10 8 10 8 9 14 14 10 8 12 20 27 23 14 20 30 29 29 24 15 15 14 11 12 10 9 11 10 10 10 10 9 11 13 11 9 8 10 11 10 11 13 13 11 11 12 12 12 11 10 10 9 10 12 12 12 13 15 21 27 28 31 34 28 29 37 42 49 44 36 39 43 48 54 59 66 69 68 69 67 68 70 69 70 71 72 71
11 10 8 10 8 14 21 18 19 18 10 15 20 13 13 27 32 32 31 22 15 14 11 10 9 7 9 8 8 9 9 10 9 10 11 10 9 8 8 10 10 10 12 12 9 11 13 12 11 11 10 9 9 11 12 10 10 13 17 23 28 28 29 30 26 32 39 40 50 50 39 37 36 44 58 61 64 69 67 65 67 67 68 67 67 67 69 71
11 9 9 10 6 13 24 26 26 18 9 13 13 11 23 32 29 29 28 23 18 12 8 10 8 7 9 8 8 9 8 9 9 8 10 10 9 8 8 10 10 11 12 10 8 9 11 12 12 9 7 9 11 13 12 10 10 15 20 22 25 26 26 27 27 34 37 32 40 49 42 35 33 40 59 67 67 65 60 58 61 64 66 66 66 66 67 71
10 8 9 11 12 20 27 25 17 9 9 10 9 18 31 32 26 25 25 22 17 11 9 9 8 8 9 9 9 10 8 9 9 9 9 10 9 8 9 10 10 10 11 10 9 9 11 16 18 14 11 11 12 15 14 13 13 14 19 20 21 23 22 24 27 31 35 30 31 40 41 36 31 33 51 65 63 55 52 54 58 61 65 66 65 65 65 69
9 7 9 13 18 24 27 21 11 10 13 8 11 26 33 32 28 24 23 21 14 12 11 9 10 9 8 9 9 9 9 9 10 9 9 9 9 9 9 9 10 11 12 11 10 10 12 14 15 15 17 13 10 13 14 13 14 12 13 16 19 23 24 24 25 28 34 31 26 31 38 40 33 27 38 52 53 49 48 51 55 59 62 66 65 63 63 67
8 6 7 9 14 17 19 13 8 13 12 5 18 33 34 34 31 24 22 19 15 15 12 9 10 9 8 9 9 9 9 9 9 9 9 9 9 9 9 10 12 12 13 13 11 11 13 12 12 13 16 15 9 10 12 12 12 11 12 18 21 23 25 24 24 27 29 28 26 29 37 44 39 29 30 40 47 49 49 46 48 54 59 64 65 63 64 67
7 5 5 7 11 12 10 7 7 9 5 8 25 34 33 35 32 26 22 18 18 17 11 10 10 10 10 8 9 10 9 9 9 9 10 10 10 10 10 12 13 11 12 14 12 10 11 13 14 10 12 16 11 8 11 12 11 11 13 19 22 22 23 24 26 28 25 24 27 30 37 42 35 30 31 33 36 43 48 48 46 50 57 61 62 62 63 65
5 5 7 7 9 12 11 11 11 8 8 18 29 30 32 36 33 32 30 22 21 18 13 12 11 9 10 9 10 10 8 9 10 9 10 10 10 10 10 11 11 10 13 14 13 12 13 14 13 10 11 13 10 9 11 11 11 12 13 15 18 19 19 19 21 21 21 25 30 34 36 32 27 34 42 39 39 43 47 50 51 52 57 58 59 61 62 64
5 7 8 9 14 19 21 21 18 13 16 25 30 32 37 38 32 32 32 25 21 19 16 14 12 10 10 10 11 10 9 10 10 10 10 9 10 11 10 10 11 12 11 12 14 16 16 15 13 15 14 11 10 12 14 12 10 13 13 12 14 16 20 25 26 25 24 24 31 36 32 27 30 39 47 46 47 49 47 48 52 55 58 59 61 63 62 63
5 8 11 15 21 24 27 28 20 14 20 27 30 34 36 34 27 26 28 23 18 20 18 14 11 11 11 10 11 11 9 9 11 10 10 10 11 11 11 10 10 11 9 12 18 17 15 14 15 17 15 11 12 13 14 14 12 14 13 12 16 17 23 32 31 32 29 20 27 36 28 26 30 31 44 53 50 52 53 49 50 55 60 63 64 63 62 62
16 22 24 22 22 25 29 28 19 17 25 27 29 36 34 27 22 24 27 24 19 19 19 16 13 12 12 11 11 11 10 10 10 9 10 11 10 10 11 10 9 9 8 10 15 15 13 13 15 16 12 13 16 13 13 14 13 13 11 13 19 16 21 31 30 29 28 19 26 32 27 30 29 24 41 56 50 52 57 52 51 58 63 65 63 63 62 61
48 48 37 26 25 29 28 22 17 23 29 28 36 45 38 25 21 23 24 21 20 20 19 19 16 13 13 12 11 11 10 9 9 11 11 11 11 10 10 9 10 9 8 8 11 13 13 12 15 17 14 15 17 12 11 13 12 12 12 13 16 14 22 33 30 25 23 21 25 29 31 36 32 25 32 42 45 52 58 58 57 60 64 64 62 62 62 61
66 49 26 23 28 27 23 21 25 31 30 30 38 41 34 27 26 26 25 22 21 21 20 18 15 15 14 12 12 12 11 9 10 12 12 11 12 11 9 10 10 9 8 8 8 12 16 14 13 16 16 14 14 13 13 13 13 13 12 12 14 18 26 29 23 19 20 24 25 26 28 28 28 32 30 30 43 53 58 63 61 57 60 62 61 60 61 62
62 33 13 22 28 26 27 30 32 33 32 35 40 36 30 27 23 22 24 23 20 19 20 17 14 16 16 14 14 14 12 12 10 11 12 11 10 11 11 10 10 11 11 10 11 15 20 19 16 16 16 14 14 14 13 12 13 13 13 14 16 19 22 20 21 22 21 25 27 25 23 17 23 43 41 33 44 52 55 61 60 57 57 59 60 58 59 62
60 22 12 23 27 33 38 34 33 35 34 35 37 34 30 28 25 23 23 23 21 19 18 17 16 17 18 16 14 14 14 13 11 12 12 10 10 11 10 11 12 11 10 10 11 14 18 20 19 17 14 13 14 17 17 14 13 12 12 13 14 18 21 19 24 28 24 26 28 25 22 14 24 51 52 42 45 48 50 55 56 57 56 57 59 57 58 62
50 14 13 22 28 38 38 33 38 41 35 32 30 28 30 31 28 25 22 21 21 20 18 18 17 17 18 16 15 17 17 14 13 13 11 10 11 10 12 17 15 10 10 11 11 18 27 30 26 22 19 16 16 21 23 19 15 14 13 14 13 17 20 16 20 27 27 28 29 27 24 18 29 53 56 51 52 48 49 54 53 53 55 56 58 55 57 62
46 29 21 21 29 35 34 34 39 37 32 30 26 23 25 25 23 21 18 16 17 19 18 16 16 16 16 15 15 17 16 15 15 14 14 14 12 11 17 19 14 11 12 11 13 23 35 38 33 28 25 21 17 20 22 20 18 14 15 17 14 15 17 17 26 33 29 29 29 26 24 19 30 54 59 58 59 51 49 55 53 52 54 55 57 58 60 64
64 58 43 31 27 29 31 33 33 30 30 31 25 20 20 18 18 17 14 14 17 18 17 16 15 14 14 15 17 17 16 16 15 15 18 19 16 19 25 23 17 11 10 15 18 18 25 34 34 28 26 24 20 20 21 20 18 15 18 21 18 19 19 21 33 36 28 32 31 23 21 19 31 53 57 57 58 50 47 51 51 54 54 53 57 61 64 66
68 62 55 44 32 29 30 30 29 27 31 35 29 24 23 19 17 17 14 15 18 17 17 17 15 13 15 17 18 19 19 17 15 17 19 18 19 23 27 28 20 10 19 34 28 16 27 41 37 26 23 24 24 23 22 22 20 20 24 23 20 21 19 22 33 30 25 37 35 23 21 21 30 44 44 49 55 52 50 50 49 53 55 55 59 62 65 66
59 51 51 44 36 36 39 41 39 35 35 38 32 27 30 27 23 24 20 16 17 18 17 16 16 16 15 16 19 20 20 18 19 23 22 18 18 19 24 32 30 27 43 49 31 26 41 47 44 38 28 23 27 31 30 27 22 21 23 21 20 22 21 26 33 27 28 37 32 32 38 28 24 32 34 43 52 51 53 53 51 54 55 57 61 63 65 65
59 58 59 53 45 43 44 45 47 45 43 39 34 33 37 35 32 30 25 21 21 21 20 18 17 17 16 19 20 20 22 25 24 23 22 21 23 20 22 32 38 45 54 42 29 39 43 34 39 47 38 30 31 36 36 29 22 22 23 20 21 24 23 23 27 31 38 32 23 43 59 37 21 27 29 36 46 50 54 53 51 55 55 57 62 65 65 64
60 62 64 62 57 52 49 49 51 51 46 41 39 40 40 38 39 38 33 29 25 23 24 21 19 21 23 22 19 21 28 29 26 25 25 28 30 23 19 22 26 36 40 27 27 42 38 28 34 36 33 33 32 34 36 30 25 26 23 19 21 24 23 23 31 39 38 26 25 50 64 42 25 26 24 28 38 40 44 49 50 52 54 59 64 65 64 62
64 64 62 61 62 60 58 57 56 50 46 47 46 43 42 42 41 40 39 35 30 30 31 27 26 31 32 29 29 35 36 28 24 31 35 34 33 27 22 21 19 21 23 20 29 39 33 32 38 32 27 31 32 34 34 27 25 26 23 22 22 22 23 23 30 37 34 28 32 46 55 45 31 27 24 29 37 38 41 48 49 49 55 60 63 64 63 60
73 73 73 68 65 64 61 58 55 46 43 51 49 43 43 44 41 41 41 39 36 36 37 37 38 40 37 35 37 38 39 37 33 35 38 35 33 33 29 24 19 18 19 21 28 32 29 35 42 35 28 28 29 32 31 25 24 23 23 28 26 24 26 26 30 36 35 35 37 40 47 43 34 33 33 36 46 49 47 49 49 49 55 59 61 62 62 60
84 83 84 78 67 64 61 57 57 50 45 50 50 46 45 42 43 45 41 37 35 37 41 43 44 43 38 37 38 35 37 45 43 36 35 32 29 30 28 24 20 19 23 27 27 28 33 39 40 33 27 27 30 32 30 26 25 23 25 31 30 27 27 26 31 35 33 34 41 42 38 30 30 40 43 43 50 51 47 50 52 53 55 57 59 61 61 60
87 81 83 79 63 60 63 58 55 52 48 50 52 49 46 41 41 44 41 36 34 35 39 42 43 43 37 36 41 39 37 41 40 36 36 34 30 27 25 23 22 22 28 32 31 36 40 35 31 29 25 28 34 35 29 25 26 26 25 27 29 29 28 27 31 35 34 32 33 32 26 26 38 49 47 43 48 51 51 52 54 56 58 59 58 60 60 60
Wind_Speed
26 26 27 27 27 28 29 29 30 30 29 28 26 24 21 19 17 16 16 16 16 16 17 17 15 13 11 10 8 7 7 8 7 6 9 9 6 9 4 5 14 13 11 11 13 12 9 8 8 11 10 5 3 1 3 4 2 2 1 1 3 2 3 5 6 4 6 9 10 9 7 10 9 8 8 8 12 10 9 9 9 11 11 14 19 26 27 24
26 27 27 27 27 28 29 29 30 30 29 28 26 24 21 19 17 16 15 16 16 16 16 15 13 11 10 8 6 5 7 8 7 9 16 13 5 8 8 7 14 14 12 11 14 12 7 6 8 11 7 3 2 1 3 3 3 2 1 2 2 1 1 1 6 7 6 10 12 7 5 8 8 8 5 4 8 8 9 9 10 14 15 18 22 25 26 25
26 27 27 27 28 28 29 30 30 30 30 28 27 24 22 20 18 16 15 15 15 15 14 12 10 9 8 6 3 3 6 6 4 8 14 14 12 11 10 10 13 14 11 9 9 8 5 5 7 7 4 2 1 1 2 2 1 1 1 2 2 3 2 1 5 6 5 10 12 8 6 8 7 4 3 5 7 5 7 7 8 13 16 17 20 22 25 23
26 27 27 28 28 28 29 30 30 31 30 29 28 26 23 20 18 16 15 14 14 13 11 9 8 7 5 3 1 2 4 3 3 3 5 7 13 16 14 12 13 13 9 7 6 5 5 5 4 2 2 1 2 1 1 1 1 1 0 1 4 4 3 3 4 5 5 9 12 9 9 9 6 4 4 4 5 3 4 5 6 14 18 18 19 21 23 22
26 27 28 28 28 29 29 30 31 31 31 31 29 27 23 19 18 16 14 13 13 10 8 7 6 5 3 1 1 2 2 2 1 3 5 4 8 14 18 15 13 12 9 7 6 6 5 3 3 1 2 2 2 1 1 1 1 2 1 2 3 2 4 6 7 9 9 11 12 10 8 6 5 7 6 4 4 3 1 4 9 15 18 19 19 19 20 20
27 27 28 29 29 29 30 30 31 32 32 32 31 28 23 19 17 15 13 12 10 7 6 5 5 4 2 1 1 1 1 1 2 2 4 2 5 10 18 18 13 12 9 8 6 4 3 2 2 1 2 1 2 2 2 1 1 1 2 3 4 4 6 7 8 9 10 12 10 7 7 6 8 8 6 7 7 4 6 9 13 15 16 19 19 18 17 16
28 28 29 29 30 30 30 31 31 32 33 33 32 29 23 18 15 13 11 9 7 6 5 5 5 4 3 1 2 2 1 3 5 3 2 1 5 9 17 19 14 12 9 7 5 2 2 3 3 2 2 1 1 2 2 1 1 3 4 5 7 9 9 8 9 9 9 11 8 7 8 6 8 7 5 8 8 8 12 13 15 16 18 18 17 16 16 15
29 30 30 30 30 31 31 31 32 33 34 35 32 28 23 18 14 11 8 6 5 4 4 5 4 4 4 2 0 1 1 4 4 1 2 1 8 13 19 20 15 12 9 7 5 3 2 4 3 2 1 2 1 1 1 2 5 5 5 5 7 9 8 9 11 12 12 9 8 10 10 8 9 8 7 8 9 11 13 14 15 16 16 15 15 15 14 14
30 31 31 31 31 31 31 31 32 33 35 35 31 27 24 19 13 9 6 4 3 4 4 4 4 5 5 2 1 2 2 3 4 2 1 2 11 18 20 19 16 13 9 7 6 4 2 2 2 2 1 2 1 1 1 2 4 4 5 7 9 10 8 10 12 13 11 7 9 12 10 9 8 6 7 7 8 12 13 13 14 14 14 13 13 14 14 14
31 32 32 31 32 32 32 32 32 33 35 34 30 25 23 18 11 7 4 3 2 3 2 2 4 6 5 2 2 3 1 3 3 1 3 5 14 21 20 18 18 14 9 7 5 3 2 3 3 2 2 2 1 1 3 2 5 6 11 12 11 10 6 8 12 12 10 7 9 13 11 8 4 3 5 6 9 13 13 13 12 12 12 12 12 13 14 14
32 32 32 32 32 32 32 32 32 33 34 33 27 23 21 16 8 4 4 3 2 1 2 5 7 6 4 2 3 3 2 5 3 4 7 8 14 17 16 17 18 14 11 7 4 3 4 6 6 2 1 1 2 4 5 3 7 12 16 14 11 11 7 7 12 11 7 6 6 11 14 10 6 4 5 7 9 12 13 13 11 10 9 10 11 11 12 12
32 32 32 32 32 32 32 32 32 33 34 32 24 20 18 13 5 2 5 4 3 4 6 8 7 5 3 1 3 2 3 5 2 6 10 10 11 11 13 17 15 11 10 6 4 5 5 8 7 2 1 2 2 3 4 2 6 13 14 12 10 9 7 5 8 7 3 7 6 3 9 9 7 5 6 8 9 10 12 12 10 9 8 8 9 9 9 11
32 32 32 32 32 32 32 32 32 32 34 30 21 17 15 9 3 2 4 4 5 5 7 7 3 2 1 2 4 3 5 3 4 8 11 10 9 11 13 14 12 9 9 8 6 7 6 6 4 2 2 2 2 1 4 3 3 9 9 8 9 6 6 4 3 4 2 5 2 4 2 5 5 5 7 9 9 11 11 10 10 8 7 7 8 8 8 11
32 32 32 32 32 32 31 31 31 32 33 28 18 14 12 6 2 3 3 4 5 6 7 5 1 1 1 2 2 2 4 2 7 9 10 11 12 12 11 11 10 9 8 8 8 7 6 4 2 4 2 2 3 3 5 5 2 7 7 5 6 5 7 7 2 3 5 3 3 6 3 4 4 6 8 9 10 11 10 9 9 8 7 7 7 8 8 10
32 32 32 32 32 32 31 31 31 32 31 25 16 11 9 4 2 3 3 3 5 7 7 4 2 1 1 2 0 2 1 5 7 9 10 12 13 9 9 10 10 8 7 6 7 7 5 4 3 4 2 1 4 6 6 5 2 5 5 4 3 3 7 8 5 4 5 2 4 6 3 5 4 7 8 9 10 10 10 9 9 8 8 8 7 8 7 8
33 32 33 32 32 31 31 31 30 31 29 21 13 8 6 3 2 2 3 3 4 6 5 3 2 0 1 0 1 1 1 4 5 9 10 9 8 8 11 11 8 7 6 4 6 7 5 4 2 2 2 2 4 6 7 6 3 1 1 5 6 5 6 6 6 5 4 2 4 4 4 5 4 8 9 9 10 10 8 8 9 8 8 8 7 7 7 6
33 33 33 32 32 31 31 30 30 30 26 18 10 5 4 3 1 1 2 4 5 5 4 1 2 2 2 1 1 1 2 3 6 10 10 8 7 11 12 7 4 5 5 5 6 5 2 2 1 1 2 2 1 5 6 5 5 3 1 3 5 5 8 7 4 5 4 3 2 3 4 5 6 9 10 9 10 9 8 9 9 8 7 8 7 7 7 7
34 34 33 32 31 31 30 29 29 28 22 15 8 3 3 2 0 2 3 5 4 3 2 0 2 1 2 2 2 1 1 2 7 9 10 9 7 9 8 4 3 6 5 5 3 2 1 1 1 1 2 1 2 4 5 5 7 8 6 4 4 4 8 8 4 6 7 3 2 5 6 6 8 9 8 9 9 9 8 7 7 7 7 7 7 7 7 7
34 34 33 33 31 31 30 28 29 25 17 13 8 2 3 3 1 1 3 4 1 2 1 1 2 1 1 2 2 1 0 4 8 8 9 10 8 6 6 4 4 5 4 3 2 1 1 1 1 3 3 3 5 5 4 5 7 9 7 6 8 7 7 6 2 3 8 6 4 5 6 8 9 8 8 8 7 7 6 5 5 6 6 6 6 6 6 7
34 34 33 33 31 31 29 27 28 21 13 12 8 3 3 3 1 0 1 2 4 4 3 2 3 2 2 2 2 1 3 5 4 4 8 10 9 7 4 3 3 4 3 3 3 2 0 3 3 4 5 5 5 4 5 6 5 5 4 4 7 8 5 4 3 2 5 5 2 1 6 10 9 8 7 7 7 6 6 6 6 6 6 6 6 7 6 6
34 34 34 33 31 30 28 28 26 16 11 11 6 2 1 1 2 2 3 3 5 5 6 6 3 4 5 2 3 1 3 3 1 2 8 10 8 6 1 2 3 4 1 1 3 1 1 3 4 4 4 4 4 6 8 7 7 5 4 4 4 5 3 4 4 2 1 2 2 3 8 8 6 6 5 5 7 7 7 7 6 6 6 5 6 7 5 4
34 34 35 33 31 30 27 28 23 10 9 11 4 1 0 1 4 5 3 4 4 4 6 5 2 6 7 4 7 4 1 4 4 2 6 7 3 3 2 2 4 4 2 2 3 2 2 4 5 4 3 6 6 6 8 7 7 5 4 5 4 4 5 5 4 3 1 2 4 7 8 6 4 4 4 5 6 5 5 5 4 5 6 5 6 5 5 4
34 35 35 33 32 29 26 28 18 5 9 11 2 1 1 5 5 5 5 3 5 2 4 5 4 5 4 3 7 6 3 5 6 3 6 7 1 1 4 3 4 4 3 5 5 4 3 3 3 3 6 8 6 5 7 6 4 4 5 5 5 7 8 5 3 3 4 2 5 9 6 3 3 3 4 5 4 3 4 4 3 4 5 5 6 5 5 6
34 35 35 34 33 28 28 26 9 3 14 12 3 2 4 8 5 4 4 2 4 3 3 5 3 4 3 2 9 10 4 2 4 6 8 7 3 2 3 3 4 4 4 6 6 4 2 2 3 4 5 6 6 6 7 6 3 3 7 6 6 11 8 4 8 7 7 6 7 10 4 2 5 5 6 5 4 4 5 5 5 5 5 4 4 5 6 6
35 35 35 35 32 28 28 17 1 8 19 8 6 2 6 10 5 4 3 2 2 3 2 3 3 5 4 3 8 7 3 2 3 4 8 8 6 4 2 2 2 4 5 5 5 3 1 2 4 4 4 4 5 6 6 6 3 3 7 7 7 12 9 10 13 10 5 3 7 8 3 3 5 7 9 6 6 8 6 7 8 7 7 6 6 6 6 5
35 35 35 34 32 31 23 5 2 17 17 2 6 1 8 11 5 5 2 2 2 2 1 3 2 6 6 4 5 4 4 4 1 2 8 10 8 3 3 2 0 2 5 5 3 1 0 1 2 4 6 6 4 3 4 5 5 3 4 6 8 11 13 14 14 9 4 3 5 5 4 3 4 8 12 8 9 10 7 8 10 9 8 8 8 7 7 7
35 34 36 33 32 30 15 4 12 17 7 1 2 3 11 10 2 5 2 1 2 1 2 1 1 5 6 3 4 5 5 4 3 3 5 10 8 1 2 5 2 2 4 4 2 1 2 3 3 4 6 7 5 4 5 6 5 3 3 8 11 12 14 15 13 7 2 4 5 2 2 2 3 5 9 10 10 11 10 11 11 11 11 10 10 9 8 8
35 35 35 32 31 27 12 10 14 8 3 1 2 6 10 4 4 4 2 1 1 0 1 1 1 3 2 1 3 3 1 2 5 4 1 6 6 1 2 5 3 4 2 2 2 2 4 4 6 7 5 5 3 2 6 6 1 2 3 8 8 7 9 10 8 5 3 4 4 4 2 3 4 1 3 8 11 12 14 15 14 13 13 12 11 11 10 9
35 34 35 33 31 22 10 10 9 5 4 3 5 9 6 2 4 1 1 1 0 1 1 1 2 2 2 2 2 1 1 1 2 2 2 3 3 2 2 3 3 5 2 1 1 2 2 2 3 5 4 4 2 5 4 3 1 4 8 11 10 8 8 4 3 4 3 3 4 7 9 5 4 2 3 6 9 14 15 14 14 14 14 13 12 11 11 9
35 34 34 34 30 17 9 12 12 7 5 5 10 9 2 4 1 1 1 1 1 1 0 0 1 1 4 6 3 1 1 1 1 3 2 2 2 3 0 2 3 4 2 2 1 1 0 1 1 1 1 3 6 7 3 1 6 11 11 12 11 8 6 5 3 3 2 4 2 5 11 7 3 3 6 7 8 12 14 11 11 14 14 13 12 11 12 10
36 33 32 33 28 16 7 8 6 0 2 6 11 4 4 2 1 2 1 0 0 1 1 1 1 2 7 8 4 1 2 1 2 5 5 2 3 2 1 2 3 2 1 1 1 0 1 2 1 0 1 3 8 8 5 3 7 7 7 8 8 5 3 3 2 1 3 5 1 1 7 8 5 4 5 8 6 6 10 11 13 16 15 14 12 12 12 10
35 33 31 29 24 15 10 7 4 4 6 9 8 1 2 0 2 3 2 1 1 1 1 1 1 3 6 4 2 3 3 2 1 4 6 4 5 4 2 3 3 2 2 2 2 1 2 2 0 1 1 2 6 7 5 2 2 3 6 7 5 3 3 3 2 2 4 3 2 1 6 6 7 8 6 8 9 7 8 10 13 16 16 15 13 12 11 10
36 33 28 24 19 17 15 11 11 12 10 6 3 0 1 1 3 2 2 2 0 0 0 1 1 3 6 4 3 3 2 3 3 3 3 2 4 5 0 1 2 2 1 1 2 3 3 1 0 2 2 2 5 7 5 4 4 6 7 5 4 4 4 4 3 1 3 1 3 2 5 4 5 7 6 7 9 9 9 8 9 12 15 15 14 13 12 11
35 31 26 22 19 16 14 11 11 8 4 2 1 1 2 2 2 1 2 2 1 1 1 1 1 3 5 4 3 3 2 3 3 3 3 3 4 5 2 1 1 1 3 2 1 2 3 2 3 4 3 3 5 3 3 6 5 4 2 2 4 4 3 4 3 3 2 2 4 4 4 4 3 1 2 2 3 4 6 6 7 9 11 13 12 12 12 12
33 28 23 17 11 8 6 8 11 8 5 4 1 1 3 3 2 1 2 2 2 2 1 1 2 4 4 1 1 2 3 2 3 3 3 4 5 5 4 5 4 2 3 3 2 1 1 2 1 1 0 4 5 1 2 5 5 2 1 1 2 3 3 1 0 1 1 2 3 3 2 3 2 1 1 2 3 4 5 6 8 9 10 11 10 11 11 11
33 26 15 7 9 10 8 5 12 14 8 3 2 3 3 2 2 2 1 1 2 2 2 1 2 4 3 2 2 1 1 1 2 3 2 2 3 3 3 3 5 6 5 3 3 2 1 1 1 1 0 1 2 3 2 0 3 3 2 3 1 1 3 3 2 2 1 2 2 2 3 3 2 3 2 2 5 5 5 8 10 10 11 12 11 11 11 11
33 24 8 5 13 14 9 5 16 18 7 3 4 3 2 2 2 2 1 2 1 2 2 1 1 2 3 3 3 3 2 2 2 3 3 2 2 4 3 2 5 9 9 4 2 2 3 2 2 1 3 3 1 4 7 3 0 3 4 6 5 1 1 2 1 2 1 4 2 2 4 3 1 2 1 2 7 6 6 8 10 10 11 13 12 12 12 12
26 16 4 6 17 14 5 10 20 15 4 2 3 3 2 1 1 2 2 2 1 1 1 2 1 1 2 4 3 3 4 4 4 3 3 2 2 3 5 3 5 9 9 5 2 2 2 3 2 0 2 4 1 3 6 5 3 1 3 6 3 2 1 1 1 2 2 3 2 2 3 3 4 3 1 4 7 7 6 8 10 12 13 13 13 13 13 12
14 7 1 9 16 5 10 17 16 6 2 4 3 2 2 2 3 3 2 2 1 1 2 2 1 0 2 3 2 3 3 5 6 3 3 3 3 3 3 3 4 6 5 5 4 2 1 3 2 1 0 2 1 4 5 4 5 4 5 4 1 1 1 1 1 1 2 2 1 2 1 3 4 3 3 5 5 6 8 9 11 13 14 13 12 13 13 12
5 2 1 11 12 8 15 10 5 1 2 4 2 1 1 3 4 3 3 2 2 2 2 2 1 1 2 2 1 2 2 3 5 3 2 4 4 4 4 3 3 3 2 2 2 3 2 2 3 2 1 3 4 3 5 6 6 5 5 4 1 2 1 1 2 1 1 2 1 2 3 3 2 3 5 5 4 6 10 10 10 12 12 12 11 12 11 11
2 1 1 10 8 7 5 0 2 2 2 2 1 2 1 3 3 4 3 3 4 4 2 2 2 1 1 2 1 2 3 2 4 3 3 5 5 4 3 3 4 6 5 4 3 3 2 2 3 3 4 5 2 2 2 2 3 4 5 5 4 4 3 2 2 1 0 1 1 1 4 4 1 2 4 3 2 6 9 10 10 10 12 12 11 11 11 10
2 1 1 7 7 4 3 0 2 1 1 2 1 2 2 2 3 4 2 1 3 3 2 2 3 2 2 2 1 2 3 2 3 3 3 5 5 4 1 1 4 7 6 4 2 2 1 2 3 3 2 2 1 3 2 2 0 1 1 2 4 4 4 4 4 3 2 1 1 1 3 3 1 1 3 3 3 5 7 9 9 9 11 11 10 11 10 8
1 3 3 6 8 2 4 1 1 1 1 1 2 2 2 2 2 2 1 1 3 2 2 2 3 3 3 2 2 3 3 3 3 3 2 3 4 3 3 4 4 4 4 3 3 3 1 1 2 1 0 1 2 2 2 1 1 2 0 1 3 2 1 2 1 2 3 3 3 2 3 3 2 1 2 3 4 5 6 8 9 8 8 9 11 10 9 8
1 4 4 7 10 1 4 1 1 2 1 1 1 1 2 2 3 3 3 3 2 1 2 2 2 2 1 0 2 3 2 2 3 2 1 2 2 1 2 5 6 6 4 2 4 5 3 1 3 3 2 2 2 2 2 2 3 3 2 2 2 3 5 4 3 1 2 3 3 3 6 3 1 1 2 2 3 6 6 7 8 7 7 8 10 9 8 9
2 1 3 6 9 3 3 1 0 2 1 1 0 2 2 2 3 2 4 4 3 2 3 2 1 1 0 0 1 1 1 0 1 2 1 1 1 0 0 4 7 7 3 0 2 6 3 2 4 5 6 6 6 5 3 4 3 2 3 4 3 5 7 4 3 2 4 3 3 4 6 3 0 0 2 2 3 6 7 7 8 8 7 7 8 8 8 9
2 1 1 3 5 4 2 2 2 0 1 1 0 1 2 2 3 2 2 3 3 4 4 3 1 2 1 1 1 1 1 1 1 1 2 2 2 0 1 2 4 4 4 5 5 5 3 1 2 5 7 6 6 3 0 2 5 4 5 7 5 4 5 4 3 3 4 4 4 5 3 3 3 3 3 3 5 6 6 6 8 8 8 7 8 8 8 8
1 1 2 2 2 2 2 2 4 3 1 0 0 1 2 3 4 3 1 0 3 5 3 2 1 1 1 2 2 1 1 1 1 1 2 1 1 1 1 1 3 3 6 6 3 2 3 3 3 4 4 1 2 2 0 1 5 5 7 9 7 5 6 6 4 3 4 4 5 4 3 4 7 5 6 6 5 6 6 7 8 8 9 9 8 9 9 9
2 1 1 2 1 1 2 3 5 4 2 1 1 1 3 3 4 3 2 2 4 6 3 1 2 4 5 2 1 2 2 1 1 1 1 0 1 1 1 1 1 1 3 3 0 1 3 3 3 3 2 2 2 1 0 1 2 4 7 9 8 7 9 9 4 4 6 5 5 1 6 7 7 5 8 7 4 5 6 6 7 7 8 9 10 11 12 12
3 1 1 2 1 1 2 4 4 2 3 3 2 3 4 4 4 3 3 4 4 6 5 1 3 8 9 5 2 2 2 1 1 2 2 1 1 1 2 2 1 0 2 3 1 0 2 2 2 3 3 4 2 0 0 2 4 4 4 6 7 7 7 6 3 4 6 6 5 1 5 10 8 7 11 8 2 4 5 3 5 8 9 10 12 13 13 14
2 1 2 3 1 1 2 3 3 0 2 4 2 3 4 4 5 5 3 2 3 6 6 5 8 12 9 5 1 2 2 2 2 1 0 1 1 1 2 2 2 2 2 2 1 1 1 2 2 2 3 3 2 2 3 3 4 5 4 2 3 4 4 3 2 3 4 4 4 3 5 9 6 6 10 8 2 3 6 6 7 8 9 11 12 13 13 13
2 1 2 2 1 3 3 2 2 1 2 3 2 3 3 3 6 7 4 2 2 4 6 8 10 10 6 1 4 4 4 5 6 6 4 3 3 2 1 1 2 3 2 1 0 1 1 2 1 1 3 2 2 3 4 4 4 4 3 5 6 5 4 3 2 3 4 4 4 3 5 7 3 3 5 6 4 6 8 7 6 6 9 11 13 13 14 14
4 1 1 2 1 3 3 2 2 0 1 2 2 3 3 2 5 6 3 1 0 3 5 9 8 6 2 3 5 6 8 9 9 9 7 6 7 6 4 3 3 1 2 2 1 1 2 4 3 2 3 3 2 2 4 4 3 3 3 6 9 7 5 3 2 5 6 5 4 5 5 5 2 1 3 5 4 6 7 5 5 6 9 11 12 13 13 14
Wind_Direction
6 6 7 5 2 0 358 357 355 353 352 351 349 343 337 333 327 322 318 315 314 314 314 312 310 305 302 295 290 290 296 301 291 268 241 247 233 199 188 137 165 159 144 154 159 149 148 171 171 161 162 173 212 229 165 188 211 173 244 142 117 143 153 164 171 154 126 138 156 172 161 132 125 115 115 98 86 90 81 68 72 67 79 103 117 128 136 144
6 5 5 4 2 359 358 356 354 352 351 351 349 343 336 330 325 319 315 312 311 312 311 309 307 304 299 292 287 295 309 308 297 266 246 240 221 199 195 150 148 150 149 158 166 168 166 170 163 157 160 174 181 203 153 163 193 186 255 103 129 160 100 145 160 155 151 155 155 149 124 118 119 125 145 121 103 102 85 80 89 90 97 110 121 129 138 146
5 4 3 3 1 359 357 355 354 351 349 349 348 343 334 326 321 316 313 311 312 313 311 308 306 304 296 288 286 312 323 315 296 265 252 239 227 214 189 166 154 151 155 161 171 180 174 158 161 163 177 179 103 209 179 139 194 184 183 114 143 170 107 88 158 161 160 145 134 114 96 98 100 112 139 132 122 110 105 111 112 117 122 127 132 135 142 149
4 2 0 0 359 358 357 355 353 349 348 347 345 341 332 323 317 313 312 311 313 314 312 307 302 301 293 290 278 328 328 284 260 226 214 218 215 213 200 177 160 160 159 155 154 155 154 143 142 153 186 127 50 214 143 73 224 148 219 120 134 163 116 71 99 89 85 112 115 115 114 99 85 80 98 127 117 92 130 151 146 140 138 137 141 143 147 151
2 1 359 358 358 357 355 353 351 348 347 345 342 338 331 320 312 310 310 310 314 313 309 299 293 293 281 296 277 315 318 218 215 155 153 175 191 199 200 184 163 162 158 149 142 137 145 133 125 78 66 68 28 197 93 29 239 102 13 37 92 146 96 76 81 87 96 106 109 115 110 98 91 74 70 63 46 50 103 149 144 144 143 142 144 145 149 152
359 359 357 356 356 355 354 352 350 348 346 344 340 336 330 319 309 307 306 310 314 311 306 288 280 276 237 53 27 339 243 213 330 185 155 179 188 186 187 181 165 159 157 150 141 139 143 90 104 83 57 49 32 45 47 1 271 118 77 38 49 70 95 99 97 104 114 110 105 106 96 100 105 77 50 55 52 63 96 119 133 138 141 142 142 145 151 154
357 356 355 354 354 354 352 351 349 347 346 343 339 335 331 321 307 301 302 310 312 307 303 279 270 253 209 110 49 35 232 269 309 240 207 256 188 174 173 173 167 158 158 151 132 130 120 70 87 103 76 91 76 52 37 32 48 102 94 61 63 77 94 106 105 104 102 99 99 108 103 92 99 92 55 65 79 97 106 119 129 135 140 142 143 148 153 157
354 354 354 353 352 352 351 350 348 347 346 342 339 336 333 325 307 294 295 304 303 296 286 270 262 229 192 152 322 16 216 267 304 289 293 255 164 163 164 163 164 159 157 151 138 155 128 68 101 157 86 73 99 81 53 81 66 71 93 86 83 81 92 105 105 103 95 97 107 101 93 80 84 90 67 70 100 111 114 124 130 137 143 145 147 150 154 159
351 352 352 352 351 350 350 349 348 346 346 343 340 336 333 329 309 284 281 286 278 279 275 263 239 192 171 158 232 213 223 288 312 306 354 144 155 158 160 161 164 160 150 147 152 165 145 102 156 189 145 116 141 71 310 112 72 60 94 95 97 94 101 110 104 104 103 105 111 100 92 91 87 75 68 80 116 120 122 128 134 143 148 151 152 155 159 164
350 350 350 351 350 350 349 349 347 346 346 343 340 336 334 333 314 273 255 242 243 271 265 205 170 160 158 177 184 179 185 19 5 178 111 123 150 155 162 167 165 161 146 139 149 135 123 154 154 170 147 115 117 49 357 85 103 101 96 85 92 96 95 109 105 103 99 94 109 111 102 89 67 49 82 108 128 128 128 132 142 149 151 157 157 160 166 169
349 349 349 350 350 349 348 348 347 346 345 343 341 336 336 340 327 257 208 185 185 171 153 145 141 142 145 179 190 155 70 16 27 134 123 124 143 152 165 169 166 167 155 141 153 128 115 139 136 127 139 139 128 72 43 79 122 118 104 86 80 90 92 105 109 105 94 109 130 115 102 81 51 66 105 132 143 137 133 137 151 156 156 162 161 164 170 173
348 349 349 349 350 349 347 347 347 347 345 343 341 339 338 343 340 223 180 160 148 135 140 141 133 131 137 221 231 192 359 353 55 141 137 133 138 143 155 162 165 169 153 139 162 150 124 137 147 126 103 165 147 74 70 106 129 120 111 100 92 95 108 111 109 108 108 152 176 138 97 70 48 85 126 141 150 144 138 143 155 164 165 165 165 167 173 177
349 349 349 349 350 349 347 347 347 347 345 344 343 342 341 345 5 165 170 154 141 137 139 140 121 102 142 230 220 250 319 350 126 146 145 142 145 142 151 160 163 154 127 115 138 154 142 138 139 106 119 121 76 79 112 98 104 112 105 111 120 117 134 162 122 126 189 151 203 281 103 71 63 116 144 148 155 151 144 149 158 168 172 170 172 174 179 184
350 349 349 349 350 348 347 347 348 347 346 345 346 346 347 355 62 131 157 155 139 139 139 130 72 106 210 251 209 303 318 120 140 153 146 142 141 140 153 160 156 147 115 102 119 139 145 137 108 107 103 38 86 124 103 76 65 114 109 110 140 156 160 178 173 168 194 147 309 287 146 109 108 134 153 159 162 162 156 158 163 169 177 177 178 181 185 190
350 349 349 349 349 348 347 347 348 347 346 346 347 352 358 7 89 126 139 143 139 140 131 97 46 124 259 268 225 346 20 132 150 161 149 142 137 131 147 146 142 148 132 119 127 134 138 131 117 105 80 41 129 129 103 90 74 116 131 139 172 186 160 182 207 205 202 154 324 306 125 119 132 146 158 166 170 173 166 164 171 175 181 185 184 188 190 190
349 348 348 348 348 349 348 347 348 347 347 347 349 359 9 17 72 135 139 130 140 136 123 91 30 49 255 28 66 331 189 153 151 157 152 146 141 134 137 133 134 147 149 155 148 138 125 100 84 39 76 130 138 126 114 120 134 164 185 157 179 187 159 184 209 206 229 254 337 343 137 135 131 153 158 167 176 180 173 169 178 182 185 190 192 194 194 190
349 348 347 347 347 349 348 347 347 346 347 347 347 2 17 21 74 115 115 124 133 122 115 99 349 317 262 333 349 240 205 168 146 155 161 150 135 137 134 123 127 136 127 133 137 133 105 61 80 13 72 87 130 136 132 145 162 181 218 156 178 183 168 176 194 180 186 248 314 39 125 128 121 150 158 167 177 183 183 178 182 190 193 195 198 203 200 198
348 347 346 346 346 348 347 347 347 345 346 346 342 350 359 349 32 44 85 110 112 112 106 46 311 290 217 247 258 233 259 184 151 155 162 150 132 136 134 111 124 135 121 113 120 140 121 20 52 138 107 91 167 166 159 165 174 179 183 178 172 190 192 186 180 171 165 184 177 115 115 123 132 149 157 164 176 188 191 183 184 193 200 199 201 210 208 207
348 346 345 345 345 346 346 347 345 344 346 346 340 321 321 308 276 67 103 106 114 248 288 168 223 300 255 244 278 297 276 152 149 148 155 155 149 135 115 95 109 131 143 150 133 66 74 114 132 160 168 173 175 177 160 155 176 182 177 175 176 186 199 187 127 157 167 153 146 148 135 142 152 155 161 160 167 188 189 180 186 192 202 204 203 211 214 216
349 346 345 344 344 344 345 346 344 343 350 351 340 315 317 324 322 91 166 194 221 256 284 211 196 278 293 261 299 295 129 133 138 145 158 161 156 135 82 37 81 105 135 162 131 50 333 181 190 190 183 183 174 146 112 117 141 157 160 170 184 188 180 153 97 97 164 150 105 152 138 145 157 156 163 160 156 179 193 192 193 192 200 205 205 206 207 213
348 346 345 343 342 342 343 344 341 341 358 360 349 337 346 2 346 326 318 264 227 226 245 238 203 258 270 251 265 247 121 131 80 122 160 162 160 157 101 9 128 131 105 100 93 72 221 198 202 215 198 155 131 125 114 116 129 140 174 176 181 198 163 122 126 94 218 194 131 141 138 138 151 152 158 168 171 185 197 202 202 199 203 203 204 204 192 183
349 346 344 342 340 341 341 341 338 339 4 4 7 35 123 312 307 266 273 300 268 212 221 242 239 261 267 247 242 252 106 143 127 117 165 156 160 187 150 66 147 151 99 103 119 137 199 211 205 207 160 107 97 126 125 121 142 147 170 182 182 172 126 107 117 76 355 219 155 155 149 131 142 156 164 186 191 186 185 200 214 209 209 206 201 198 186 174
349 345 343 342 339 339 340 338 334 333 359 356 355 98 352 341 329 220 207 289 287 241 187 212 215 229 249 237 213 202 170 159 153 170 180 162 134 163 142 114 129 130 132 165 170 170 176 195 201 165 140 129 106 123 129 120 146 160 164 181 180 166 159 156 148 83 53 84 150 157 144 122 146 164 183 197 197 181 182 196 216 219 225 222 206 194 190 185
348 345 343 341 338 338 338 336 333 358 347 339 225 170 2 349 351 187 202 286 279 283 212 207 212 210 222 174 171 172 159 158 165 168 174 164 122 125 153 126 121 138 168 181 180 189 170 128 108 101 129 146 125 133 155 152 155 184 189 198 177 173 175 136 136 124 75 72 136 145 130 176 191 197 198 193 197 201 196 196 202 210 226 238 217 203 201 194
348 345 342 341 339 336 336 337 52 347 338 325 190 163 358 343 334 196 221 301 260 282 238 198 213 206 196 137 161 169 119 146 209 171 166 161 136 137 151 120 155 173 167 167 175 209 227 131 137 122 125 143 137 158 183 183 174 189 210 221 192 170 145 116 136 144 121 131 167 163 189 208 187 209 210 188 198 206 196 204 209 201 207 219 213 208 205 199
346 344 341 341 338 336 339 351 343 332 329 293 170 235 338 333 316 193 201 341 262 263 147 172 196 175 161 135 155 153 138 167 253 145 159 164 151 138 140 130 251 185 158 158 167 236 33 115 161 157 144 144 155 177 186 195 183 167 197 189 169 154 137 136 151 158 160 169 171 192 246 223 178 214 214 198 206 211 201 211 214 199 198 207 209 207 199 197
344 343 340 339 338 340 342 295 315 324 315 199 192 295 329 330 265 186 207 333 241 230 129 178 258 159 159 164 158 155 163 152 115 136 169 170 160 76 163 173 181 153 153 162 150 146 163 144 154 156 136 147 176 183 183 198 178 139 137 146 151 154 151 156 161 158 138 108 119 183 282 274 225 217 206 197 207 218 216 217 214 204 202 203 206 206 200 199
342 341 338 336 336 337 325 291 311 314 254 279 290 316 332 332 166 182 248 228 204 31 131 157 137 144 126 147 162 151 156 120 140 169 209 171 163 41 200 196 178 139 136 193 162 129 173 176 167 164 142 163 195 143 159 172 121 63 102 116 125 134 139 155 154 122 105 136 166 194 200 249 242 171 169 193 210 227 225 220 212 204 202 202 203 205 203 202
340 339 337 333 330 332 321 289 295 277 262 301 322 331 347 135 160 194 246 214 208 51 104 117 136 144 88 138 176 51 51 74 156 150 78 157 160 23 195 186 136 127 90 285 189 107 181 231 194 173 158 169 108 59 137 168 64 121 108 91 83 72 72 86 113 96 111 203 218 190 187 223 246 182 155 182 212 228 225 219 211 203 200 199 200 202 204 204
336 336 335 331 326 328 319 289 283 274 264 297 330 342 77 132 169 221 193 226 253 79 97 227 173 161 139 154 187 345 107 68 61 107 93 134 100 34 69 119 103 128 85 15 85 79 157 267 247 181 129 131 100 70 39 53 130 136 115 94 89 78 70 62 50 72 140 228 251 183 191 212 269 213 178 185 212 223 218 208 199 198 198 196 197 199 202 203
333 333 332 327 319 309 295 285 288 129 207 307 334 355 132 109 336 213 199 224 196 113 151 185 132 148 156 162 178 171 149 72 102 143 143 140 126 90 150 156 108 118 140 102 136 12 71 132 179 120 87 122 110 85 46 81 135 136 120 121 107 82 95 93 66 99 226 225 24 37 194 200 243 242 192 201 217 223 217 206 196 196 195 193 194 197 198 201
331 331 328 323 309 279 247 246 265 270 279 312 332 336 152 167 228 224 267 320 164 185 199 174 168 161 162 165 159 153 158 150 143 155 148 152 171 169 189 192 165 155 194 188 159 134 113 142 285 30 130 176 126 104 88 103 159 136 134 143 126 108 157 165 165 199 235 227 47 49 186 189 242 257 249 226 220 222 225 220 207 198 192 188 190 192 193 197
330 330 327 319 300 269 256 259 263 266 273 298 322 175 116 190 222 221 258 298 62 222 339 102 124 139 155 171 168 158 158 164 177 172 141 135 179 180 78 49 158 156 164 173 160 153 145 162 240 130 147 227 176 150 146 172 192 165 153 158 150 145 176 186 173 230 249 221 55 115 180 204 253 261 269 242 224 224 224 230 224 204 191 187 187 189 189 193
329 331 327 314 296 279 268 252 241 245 241 201 178 153 140 188 233 228 236 275 320 284 358 75 106 134 155 180 182 173 184 177 167 154 144 148 177 187 179 165 176 94 96 139 181 167 173 182 169 159 153 181 189 187 138 146 163 167 142 167 172 166 192 204 190 212 220 131 85 114 176 220 224 209 306 270 265 249 232 234 233 215 196 186 183 184 186 191
329 332 328 313 303 307 292 240 213 189 156 150 151 188 184 205 244 231 234 278 304 297 342 71 149 153 168 217 280 200 210 199 161 150 154 162 179 187 179 184 197 162 133 170 187 108 212 218 126 31 299 172 178 168 61 122 139 130 44 178 199 181 163 148 103 169 118 111 137 160 218 244 238 267 304 282 287 264 241 233 224 216 199 185 181 182 187 191
330 336 335 316 324 329 315 255 191 173 158 148 179 213 216 236 232 185 183 318 319 315 316 324 147 163 182 187 186 192 197 135 155 171 173 170 195 190 178 183 182 181 178 172 171 150 184 196 59 38 102 138 178 137 86 303 152 138 174 176 157 33 118 122 101 69 40 222 173 177 246 260 277 261 211 240 258 238 224 222 215 208 192 185 188 188 190 192
332 338 336 305 327 323 302 238 172 163 150 149 192 227 238 246 216 192 275 311 291 300 302 274 174 181 181 179 189 170 148 142 159 196 181 171 207 182 189 215 177 186 192 180 201 220 195 159 75 193 145 78 321 130 91 28 137 159 183 155 132 79 68 107 153 117 186 235 189 175 248 265 285 264 169 215 244 229 212 210 205 198 189 191 195 192 191 191
327 328 310 318 331 323 275 171 158 152 125 158 208 254 232 221 224 216 280 306 275 262 271 239 231 229 176 185 186 153 163 174 166 179 170 178 236 171 167 187 180 194 197 184 207 228 201 182 100 341 150 111 248 185 115 70 20 41 144 135 138 201 164 109 185 172 203 243 208 182 254 266 224 226 219 223 231 217 199 198 198 197 195 196 197 193 191 188
319 310 300 352 342 341 147 149 151 136 99 174 216 244 218 260 265 240 248 288 270 213 252 249 231 293 188 187 168 148 174 181 161 166 183 186 212 178 175 203 187 196 193 178 190 161 137 228 178 96 142 146 208 221 180 133 66 64 123 129 358 309 135 136 134 189 231 228 210 195 240 244 214 208 226 233 224 195 185 193 202 203 201 201 197 192 190 186
324 277 109 4 4 122 136 142 155 106 144 176 230 206 229 291 273 263 238 232 246 224 252 265 218 216 202 202 209 159 159 170 159 166 193 182 195 199 205 207 161 141 130 146 182 145 102 238 192 118 110 200 193 205 203 170 131 142 163 159 142 100 95 178 120 58 266 190 184 234 255 253 206 182 217 235 222 187 186 194 204 207 204 204 200 195 190 184
322 299 117 12 17 147 152 202 174 137 156 177 242 200 250 292 277 294 269 211 235 241 249 244 226 260 205 189 229 167 140 150 161 168 192 192 208 213 204 197 158 138 134 143 174 181 162 179 177 154 171 194 190 20 286 221 154 162 182 184 166 138 137 186 181 165 265 227 187 224 269 271 165 164 221 242 230 202 196 197 201 205 206 204 202 200 194 183
275 328 178 11 9 204 230 287 144 353 201 174 244 223 259 296 267 295 314 217 233 234 253 252 224 236 220 190 177 158 147 147 162 175 196 201 213 214 186 153 156 151 150 150 160 170 140 129 147 159 188 208 356 12 331 282 5 101 160 184 158 144 163 197 213 190 153 146 102 94 280 273 111 145 238 254 255 235 215 205 203 205 205 202 201 200 192 179
247 318 282 360 9 217 210 144 159 266 197 168 322 232 220 281 255 276 319 264 242 222 226 239 212 214 226 208 183 182 174 171 179 187 197 202 211 208 174 146 146 162 167 149 141 152 152 124 124 115 5 41 35 49 70 66 170 183 119 136 166 170 150 167 192 160 160 175 156 161 254 257 119 132 245 251 247 246 233 219 213 209 202 197 197 195 183 172
306 299 273 350 6 145 195 239 186 195 212 11 336 260 236 245 236 255 272 259 250 233 241 250 224 220 250 175 169 186 185 187 197 203 198 190 187 156 160 170 174 184 191 184 170 173 185 173 134 142 146 132 153 169 155 181 214 210 138 136 166 123 105 108 102 116 202 199 163 205 250 259 107 122 264 246 230 238 236 226 221 218 207 198 193 185 174 171
301 256 242 330 2 63 167 318 38 168 133 97 346 337 332 263 237 266 280 272 276 273 262 272 240 202 235 61 145 128 74 224 201 191 179 188 202 356 277 202 202 201 204 309 155 157 162 173 159 164 172 179 190 197 197 183 175 165 145 156 162 141 142 142 116 166 224 193 157 216 249 268 27 280 266 233 225 243 236 221 221 223 216 203 193 182 175 175
327 11 286 319 8 50 87 14 10 85 99 97 138 42 9 301 297 316 277 267 315 312 274 264 262 206 184 182 159 112 65 14 34 143 171 175 181 249 318 201 202 197 144 117 132 136 122 137 165 177 188 192 187 184 224 139 151 166 171 164 163 154 147 131 129 197 197 152 184 222 244 290 282 264 267 242 226 242 239 217 217 217 210 202 192 183 178 180
354 348 354 343 357 40 80 57 23 12 13 125 149 31 2 315 312 328 335 60 357 340 295 243 280 259 213 193 171 135 110 99 82 138 172 182 174 239 291 188 165 153 128 124 129 116 125 162 173 173 191 213 102 107 75 171 160 163 162 161 164 157 156 168 190 190 138 147 236 225 162 243 263 259 268 263 237 240 241 225 221 213 203 195 181 175 177 179
14 43 16 334 307 33 40 7 3 4 17 41 95 39 13 2 353 349 343 329 348 1 351 183 64 13 344 315 191 167 158 139 129 176 184 175 138 139 143 143 130 135 145 138 66 110 142 155 164 160 149 101 80 87 228 165 118 135 156 163 165 167 180 194 194 149 156 209 270 145 151 221 254 266 272 272 249 247 251 233 221 209 195 182 172 176 181 180
6 52 6 331 325 30 330 327 330 343 28 26 45 53 24 14 13 353 311 308 343 16 13 344 359 351 336 321 278 185 171 170 176 193 189 161 144 152 157 150 115 77 158 128 76 231 160 124 150 164 122 105 97 356 157 123 110 118 139 156 165 172 186 202 189 164 191 243 291 128 203 242 251 255 268 277 271 259 269 255 219 206 191 180 180 185 185 182
15 37 350 331 344 336 312 330 339 29 46 15 22 43 17 15 14 348 301 286 336 10 16 350 334 329 318 307 283 127 75 353 296 270 240 174 169 173 190 192 156 126 108 109 100 270 204 140 167 169 121 102 65 57 81 89 109 127 133 143 151 149 167 201 206 170 201 263 278 244 250 262 250 234 256 274 293 262 255 236 219 207 189 184 186 188 185 183
359 295 337 322 355 2 343 351 5 84 56 16 21 23 358 23 10 332 282 241 321 26 23 345 328 319 306 12 78 69 18 328 290 289 298 286 277 277 292 264 203 159 100 89 111 7 76 126 155 181 166 146 51 67 93 84 94 129 184 199 181 165 175 196 188 176 194 223 234 232 260 273 260 204 250 264 252 246 245 229 213 202 191 190 190 188 186 186
349 268 338 300 317 21 358 340 355 59 96 22 5 348 329 352 351 328 299 241 251 75 26 342 330 318 302 65 50 356 325 301 279 281 287 281 279 276 270 272 267 230 128 132 104 29 116 140 144 186 187 148 88 107 121 121 157 195 228 210 189 182 181 160 163 205 210 204 214 239 260 278 300 220 258 262 243 247 252 235 210 199 195 196 196 191 188 188